User: anonymous
Location: Cypress Hills Dark-Sky Preserve - CHICO
(49.6176°N, 110.2634°W)
Time: 01:47:49
(UTC-06:00)
Language:

SPOT 5 - Orbit

View from above orbital plane
View from above orbital plane
View from above satellite
View from above satellite

Ground track
Ground track

The orbit data is extracted from the following two-line orbital elements,

1 27421U 02021A   14212.75337676  .00000084  00000-0  59503-4 0  7924
2 27421 098.5584 274.4645 0001601 083.4189 064.3038 14.20102320634642
Epoch (UTC): 31 July 2014 18:04:51
Eccentricity: 0.0001601
inclination: 98.5584°
perigee height: 824 km
apogee height: 826 km
right ascension of ascending node: 274.4645°
argument of perigee: 83.4189°
revolutions per day: 14.20102320
mean anomaly at epoch: 64.3038°
orbit number at epoch: 63464

The dashed part of the orbit path shows where the satellite is in the earth's shadow,  

DLR